Tracking 33165 objects as of 7-Feb-2026
HD Live streaming from Space Station
objects crossing your sky now

STARLINK-32504

Track STARLINK-32504 now!
10-day predictions
STARLINK-32504 is classified as:


NORAD ID: 62024
Int'l Code: 2024-213S
Perigee: 481.4 km
Apogee: 483.0 km
Inclination: 53.2 °
Period: 94.1 minutes
Semi major axis: 6853 km
RCS: Unknown
Launch date: November 18, 2024
Source: United States (US)
Launch site: AIR FORCE WESTERN TEST RANGE (AFWTR)
Your satellite tracking list
Your tracking list is empty




NASA's NSSDC Master Catalog

Two Line Element Set (TLE):
1 62024U 24213S   26038.17005850  .00058156  00000-0  19572-2 0  9992
2 62024  53.1581 309.7836 0001224 117.2957 242.8169 15.30252573 68487
Source of the keplerian elements: AFSPC